Hourly Data Report for October 11, 2015

All times are specified in Local Standard Time (LST). Add 1 hour to adjust for Daylight Saving Time where and when it is observed.

OTTAWA INTL A
ONTARIO

45°19'00.000" N
75°40'00.000" W
114.90 m
6106001
71628
YOW

Download Data

Hourly Data (October 2015)
Hourly Data Report for October 11, 2015
Temp Definition
°C
Dew Point Temp Definition
°C
Rel Hum Definition
%
Wind Dir Definition
10's deg

Wind Spd Definition
km/h
Visibility Definition
km
Stn Press Definition
kPa
Hmdx Definition


Wind Chill Definition


Weather Definition


TIME
00:00 Legend Double Dagger 6.8 4.3 84 19 16 24.1 99.85     LegendNANA
01:00 Legend Double Dagger 7.0 4.7 85 20 9 24.1 99.78     Cloudy
02:00 Legend Double Dagger 8.1 5.6 84 19 17 24.1 99.71     LegendNANA
03:00 Legend Double Dagger 8.2 6.0 86 20 14 24.1 99.65     LegendNANA
04:00 Legend Double Dagger 8.5 6.6 88 18 15 24.1 99.56     Mostly Cloudy
05:00 Legend Double Dagger 9.1 7.6 90 20 16 24.1 99.50     LegendNANA
06:00 Legend Double Dagger 9.4 8.2 92 20 19 24.1 99.41     LegendNANA
07:00 Legend Double Dagger 10.2 8.8 91 20 13 24.1 99.40     Mostly Cloudy
08:00 Legend Double Dagger 11.8 8.9 82 23 19 24.1 99.42     LegendNANA
09:00 Legend Double Dagger 12.9 9.2 78 24 22 24.1 99.42     LegendNANA
10:00 Legend Double Dagger 14.2 9.3 72 24 26 24.1 99.38     Mostly Cloudy
11:00 Legend Double Dagger 15.4 9.6 68 22 16 24.1 99.37     LegendNANA
12:00 Legend Double Dagger 17.1 8.9 58 23 31 24.1 99.27     LegendNANA
13:00 Legend Double Dagger 17.7 9.7 59 21 22 24.1 99.18     Mostly Cloudy
14:00 Legend Double Dagger 18.6 11.5 63 20 16 24.1 99.12     LegendNANA
15:00 Legend Double Dagger 18.5 11.2 62 21 22 24.1 99.13     LegendNANA
16:00 Legend Double Dagger 18.5 11.4 63 21 16 24.1 99.10     Clear
17:00 Legend Double Dagger 17.4 11.5 68 19 11 24.1 99.08     LegendNANA
18:00 Legend Double Dagger 15.8 11.2 74 19 12 24.1 99.10     LegendNANA
19:00 Legend Double Dagger 15.2 10.9 75 20 12 24.1 99.13     Clear
20:00 Legend Double Dagger 13.8 10.4 80 18 12 24.1 99.12     LegendNANA
21:00 Legend Double Dagger 12.9 9.8 81 17 8 24.1 99.13     LegendNANA
22:00 Legend Double Dagger 12.8 9.5 80 20 8 24.1 99.15     Clear
23:00 Legend Double Dagger 12.4 9.4 82 19 10 24.1 99.15     LegendNANA

Notes on Data Quality.

Legend

  • E = Estimated
  • M = Missing
  • NA = Not Available
  • ‡ = Partner data that is not subject to review by the National Climate Archives
Date modified: